Gambell, AK

9:44 PM AKST on November 21, 2017 (GMT -0900)
Gambell

Weather History for PAGM - February, 2014

Change the Weather History Date:

Sunday, February 2, 2014

  Actual Average Record
Temperature  
Mean Temperature 26 °F -  
Max Temperature 33 °F 5 °F 35 °F (2007)
Min Temperature 19 °F 0 °F -22 °F (1999)
Degree Days  
Heating Degree Days 39    
Moisture  
Dew Point 19 °F    
Average Humidity 68    
Maximum Humidity 80    
Minimum Humidity 60    
Precipitation  
Precipitation 0.01 in - - ()
Sea Level Pressure  
Sea Level Pressure 30.70 in    
Wind  
Wind Speed 15 mph (South)    
Max Wind Speed 24 mph    
Max Gust Speed 28 mph    
Visibility 5 miles    
Events      
Averages and records for this station are not official NWS values.
T = Trace of Precipitation, MM = Missing Value Source: NWS Daily Summary

Daily Weather History Graph

Daily Weather History Graph

Search for Another Location

Airport or City:

Trip Planner

Search our weather history database for the weather conditions in past years. The results will help you decide how hot, cold, wet, or windy it might be!

Date:

Astronomy

Feb. 02, 2014 Rise Set
Actual Time 11:00 AM AKST 6:21 PM AKST
Civil Twilight 10:05 AM AKST 7:17 PM AKST
Nautical Twilight 9:07 AM AKST 8:14 PM AKST
Astronomical Twilight 8:12 AM AKST 9:09 PM AKST
Moon 11:06 AM AKST (2/2) No Moon Set
Length of Visible Light 9h 11m
Length of Day
7h 21m
Waxing Crescent, 12% of the Moon is Illuminated
Feb 2
Waxing Crescent
Feb 6
First Quarter
Feb 14
Full
Feb 22
Last Quarter
Feb 28
New

Hourly Weather History & Observations

Time (AKST) Temp. Windchill Dew Point Humidity Pressure Visibility Wind Dir Wind Speed Gust Speed Precip Events Conditions
12:16 AM 32.0 °F 19.8 °F 21.2 °F 64% 30.65 in 10.0 mi SSE 20.7 mph - N/A   Clear
12:36 AM 33.8 °F 21.6 °F 24.8 °F 70% 30.64 in 10.0 mi SSE 23.0 mph - N/A   Clear
12:56 AM 32.0 °F 19.5 °F 21.2 °F 64% 30.64 in 10.0 mi SSE 21.9 mph - N/A   Clear
1:16 AM 30.2 °F 17.1 °F 19.4 °F 64% 30.66 in 10.0 mi SSE 21.9 mph 26.5 mph N/A   Clear
1:36 AM 30.2 °F 16.5 °F 21.2 °F 69% 30.66 in 10.0 mi SSE 24.2 mph - N/A   Clear
1:56 AM 33.8 °F 21.6 °F 21.2 °F 60% 30.67 in 10.0 mi SSE 23.0 mph - N/A   Clear
2:16 AM 32.0 °F 19.8 °F 21.2 °F 64% 30.67 in 10.0 mi SSE 20.7 mph - N/A   Clear
2:36 AM 32.0 °F 18.9 °F 21.2 °F 64% 30.68 in 10.0 mi SSE 24.2 mph 27.6 mph N/A   Clear
2:56 AM 32.0 °F 20.1 °F 21.2 °F 64% 30.68 in 10.0 mi SSE 19.6 mph - N/A   Clear
3:16 AM 30.2 °F 17.8 °F 21.2 °F 69% 30.69 in 10.0 mi SSE 19.6 mph - N/A   Clear
3:36 AM 30.2 °F 18.1 °F 21.2 °F 69% 30.69 in 10.0 mi South 18.4 mph - N/A   Clear
3:56 AM 28.4 °F 16.6 °F 19.4 °F 69% 30.70 in 10.0 mi South 16.1 mph - N/A   Clear
4:16 AM 30.2 °F 18.5 °F 19.4 °F 64% 30.70 in 10.0 mi SSE 17.3 mph - N/A   Clear
4:36 AM 30.2 °F 19.3 °F 21.2 °F 69% 30.70 in 10.0 mi South 15.0 mph - N/A   Clear
4:56 AM 28.4 °F 17.0 °F 19.4 °F 69% 30.70 in 10.0 mi South 15.0 mph - N/A   Clear
5:16 AM 30.2 °F 19.3 °F 19.4 °F 64% 30.71 in 10.0 mi South 15.0 mph - N/A   Partly Cloudy
5:36 AM 28.4 °F 18.0 °F 21.2 °F 74% 30.72 in 10.0 mi South 12.7 mph - N/A   Partly Cloudy
5:56 AM 28.4 °F 17.0 °F 19.4 °F 69% 30.71 in 10.0 mi South 15.0 mph - N/A   Clear
6:16 AM 28.4 °F 18.0 °F 19.4 °F 69% 30.71 in 10.0 mi South 12.7 mph - N/A   Clear
6:36 AM 30.2 °F 19.3 °F 21.2 °F 69% 30.71 in 10.0 mi South 15.0 mph - N/A   Clear
6:56 AM 30.2 °F 19.3 °F 21.2 °F 69% 30.71 in 10.0 mi South 15.0 mph - N/A   Clear
7:16 AM 28.4 °F 16.2 °F 19.4 °F 69% 30.71 in 10.0 mi South 17.3 mph - N/A   Clear
7:36 AM 28.4 °F 16.2 °F 17.6 °F 64% 30.72 in 10.0 mi SSE 17.3 mph - N/A   Clear
7:56 AM 30.2 °F 18.5 °F 19.4 °F 64% 30.72 in 10.0 mi SSE 17.3 mph - N/A   Clear
8:16 AM 28.4 °F 16.6 °F 19.4 °F 69% 30.72 in 10.0 mi South 16.1 mph - 0.01 in   Clear
8:36 AM 28.4 °F 17.0 °F 19.4 °F 69% 30.72 in 10.0 mi South 15.0 mph - 0.01 in   Clear
8:56 AM 30.2 °F 20.8 °F 19.4 °F 64% 30.73 in 10.0 mi South 11.5 mph - 0.01 in   Clear
9:36 AM 28.4 °F 18.5 °F 17.6 °F 64% 30.74 in 10.0 mi South 11.5 mph - N/A   Clear
9:56 AM 30.2 °F 20.8 °F 19.4 °F 64% 30.74 in 10.0 mi South 11.5 mph - N/A   Clear
10:16 AM 28.4 °F 18.5 °F 19.4 °F 69% 30.74 in 10.0 mi South 11.5 mph - N/A   Clear
10:36 AM 28.4 °F 18.5 °F 19.4 °F 69% 30.74 in 10.0 mi South 11.5 mph - N/A   Clear
10:56 AM 28.4 °F 19.1 °F 19.4 °F 69% 30.74 in 10.0 mi South 10.4 mph - N/A   Clear
11:16 AM 28.4 °F 19.1 °F 19.4 °F 69% 30.74 in 10.0 mi South 10.4 mph - N/A   Clear
11:36 AM 28.4 °F 19.1 °F 19.4 °F 69% 30.75 in 10.0 mi South 10.4 mph - N/A   Clear
11:56 AM 28.4 °F 19.7 °F 19.4 °F 69% 30.75 in 10.0 mi South 9.2 mph - N/A   Clear
12:16 PM 28.4 °F 19.7 °F 19.4 °F 69% 30.75 in 10.0 mi South 9.2 mph - N/A   Clear
12:36 PM 28.4 °F 19.7 °F 19.4 °F 69% 30.76 in 10.0 mi SSW 9.2 mph - N/A   Partly Cloudy
12:56 PM 28.4 °F 18.5 °F 19.4 °F 69% 30.76 in 0.2 mi SSW 11.5 mph - N/A   Overcast
1:16 PM 30.2 °F 21.9 °F 19.4 °F 64% 30.75 in 0.2 mi South 9.2 mph - N/A   Overcast
1:36 PM 32.0 °F 23.0 °F 21.2 °F 64% 30.75 in 0.2 mi South 11.5 mph - N/A   Overcast
1:56 PM 32.0 °F 23.6 °F 21.2 °F 64% 30.75 in 0.2 mi SSW 10.4 mph - N/A   Overcast
2:16 PM 32.0 °F 23.6 °F 21.2 °F 64% 30.75 in 0.2 mi SSW 10.4 mph - N/A   Overcast
2:36 PM 32.0 °F 24.2 °F 21.2 °F 64% 30.75 in 0.2 mi SSW 9.2 mph - N/A   Overcast
2:56 PM 30.2 °F 22.6 °F 21.2 °F 69% 30.74 in 0.2 mi SSW 8.1 mph - N/A   Overcast
3:16 PM 32.0 °F 25.6 °F 21.2 °F 64% 30.74 in 0.2 mi SSW 6.9 mph - N/A   Overcast
3:36 PM 30.2 °F 23.4 °F 21.2 °F 69% 30.74 in 0.2 mi SSW 6.9 mph - N/A   Overcast
3:56 PM 30.2 °F 24.3 °F 21.2 °F 69% 30.74 in 0.2 mi SW 5.8 mph - N/A   Overcast
4:16 PM 30.2 °F 25.4 °F 21.2 °F 69% 30.73 in 0.2 mi SSW 4.6 mph - N/A   Overcast
4:36 PM 30.2 °F 25.4 °F 19.4 °F 64% 30.73 in 0.2 mi SSW 4.6 mph - N/A   Overcast
4:56 PM 30.2 °F 25.4 °F 19.4 °F 64% 30.73 in 0.2 mi SSW 4.6 mph - N/A   Overcast
5:16 PM 30.2 °F 25.4 °F 19.4 °F 64% 30.72 in 0.2 mi SSW 4.6 mph - N/A   Overcast
5:36 PM 28.4 °F - 19.4 °F 69% 30.72 in 0.2 mi Calm Calm - N/A   Overcast
5:56 PM 28.4 °F 24.6 °F 19.4 °F 69% 30.72 in 0.2 mi South 3.5 mph - N/A   Overcast
6:16 PM 28.4 °F - 19.4 °F 69% 30.71 in 0.2 mi Calm Calm - N/A   Overcast
6:36 PM 28.4 °F - 19.4 °F 69% 30.70 in 0.2 mi Calm Calm - N/A   Overcast
6:56 PM 28.4 °F 15.1 °F 19.4 °F 69% 30.70 in 0.2 mi West 20.7 mph 26.5 mph N/A   Overcast
7:16 PM 28.4 °F - 19.4 °F 69% 30.69 in 0.2 mi Calm Calm - N/A   Overcast
7:36 PM 26.6 °F 22.6 °F 17.6 °F 69% 30.69 in 0.5 mi West 3.5 mph - N/A   Overcast
7:56 PM 26.6 °F - 17.6 °F 69% 30.68 in 0.5 mi Calm Calm - N/A   Overcast
8:16 PM 26.6 °F 22.6 °F 17.6 °F 69% 30.68 in 0.8 mi WSW 3.5 mph - N/A   Overcast
8:36 PM 26.6 °F 22.6 °F 17.6 °F 69% 30.67 in 0.5 mi West 3.5 mph - N/A   Overcast
8:56 PM 26.6 °F 22.6 °F 17.6 °F 69% 30.66 in 0.5 mi West 3.5 mph - N/A   Overcast
9:16 PM 24.8 °F - 17.6 °F 74% 30.66 in 0.5 mi Calm Calm - N/A   Overcast
9:36 PM 23.0 °F 18.4 °F 15.8 °F 74% 30.65 in 0.5 mi NW 3.5 mph - N/A   Overcast
9:56 PM 21.2 °F 9.5 °F 14.0 °F 74% 30.65 in 0.5 mi NW 11.5 mph 26.5 mph N/A   Overcast
10:16 PM 21.2 °F 16.4 °F 14.0 °F 74% 30.64 in 0.8 mi NNW 3.5 mph - N/A   Overcast
10:36 PM 21.2 °F - 14.0 °F 74% 30.63 in 0.2 mi Calm Calm - N/A   Overcast
10:56 PM 19.4 °F 12.8 °F 14.0 °F 80% 30.63 in 0.5 mi North 4.6 mph - N/A   Overcast
11:16 PM 21.2 °F 14.9 °F 15.8 °F 80% 30.63 in 1.0 mi NNE 4.6 mph - N/A   Mostly Cloudy
11:36 PM 21.2 °F 13.6 °F 15.8 °F 80% 30.61 in 1.2 mi NNE 5.8 mph - N/A   Scattered Clouds
11:56 PM 19.4 °F 10.4 °F 12.2 °F 74% 30.61 in 1.8 mi North 6.9 mph - N/A   Overcast